Location: *
(42.3911°N, 3.0009°E)
Time: 13:23:03
(UTC+00:00)

Daily predictions for brighter satellites

Satellite Brightness Start Highest point End
(mag) Time Altitude Azimuth Time Altitude Azimuth Time Altitude Azimuth
STARLINK-1106 3.7 18:42:06 10° NW 18:46:16 82° SW 18:50:24 10° SE
H-2A R/B 2.5 18:42:37 10° SE 18:47:31 42° ENE 18:52:18 10° N
SJ-11-01 4.4 18:45:02 10° SSE 18:49:38 57° ENE 18:54:16 10° N
STARLINK-1112 3.8 18:47:04 10° NW 18:51:13 75° SW 18:55:20 10° SE
SL-16 R/B 3.7 18:49:44 10° SW 18:55:03 41° WNW 19:00:24 10° NNE
ADEOS Rocket 3.7 18:49:17 10° N 18:55:37 62° WNW 19:01:20 10° SSW
STARLINK-1128 3.9 18:52:04 10° WNW 18:56:11 68° SW 19:00:17 10° SE
CZ-2C R/B 3.9 18:55:54 10° NE 18:59:17 17° E 19:02:40 10° SE
NOSS 3-3 (A) 3.9 18:53:54 10° SSW 18:59:40 80° ESE 19:06:09 10° NE
NOSS 3-3 (C) 3.9 18:54:00 10° SSW 18:59:45 79° ESE 19:06:15 10° NE
Cosmos 2251 Rocket 3.5 18:55:17 10° SSW 19:00:38 77° ESE 19:06:02 10° NNE
Cosmos 1726 2.7 18:57:32 10° SSE 19:00:58 36° E 19:04:25 10° NNE
STARLINK-1113 4.0 18:57:04 10° WNW 19:01:10 62° SW 19:05:15 10° SE
ARGOS 3.4 18:58:05 10° SE 19:03:16 49° ENE 19:08:27 10° N
YAOGAN 1 4.4 19:01:10 10° SSW 19:05:05 34° W 19:09:03 10° NNW
MONITOR-E 4.5 19:02:41 10° SE 19:05:06 33° ENE 19:07:32 10° N
STARLINK-60 4.1 19:02:39 10° S 19:05:23 24° SE 19:07:54 11° E
STARLINK-1119 4.1 19:02:02 10° WNW 19:06:07 57° SW 19:10:10 10° SE
SJ-6B 3.5 19:02:58 10° SE 19:06:47 39° ENE 19:10:39 10° N
ISS -3.5 19:03:55 10° WNW 19:07:16 67° SW 19:10:16 12° SE
Cosmos 2184 Rocket 4.3 19:01:28 10° N 19:07:30 46° ENE 19:13:27 10° SSE
BREEZE M DEB (TANK) 3.8 19:07:01 10° SSE 19:09:01 16° ESE 19:12:10 10° ENE
Meteor 2-10 4.2 19:04:26 10° S 19:09:42 55° E 19:15:10 10° NNE
STARLINK-1114 4.3 19:07:02 10° WNW 19:11:05 51° SW 19:15:05 10° SSE
USA 186 1.9 19:08:27 10° SSE 19:11:45 55° ENE 19:14:57 10° N
Cosmos 1626 Rocket 4.2 19:09:02 10° NNW 19:13:20 58° W 19:17:34 10° S
STARLINK-1130 (DARKSAT) 4.4 19:12:04 10° WNW 19:16:03 47° SW 19:19:58 10° SSE
Cosmos 1603 3.7 19:11:54 10° SSW 19:17:32 89° ESE 19:23:11 10° NNE
FREGAT/IRIS 2.2 19:15:58 10° SSE 19:18:39 72° ENE 19:21:22 10° N
Cosmos 2058 Rocket 4.3 19:16:34 13° SE 19:19:19 22° E 19:22:49 10° NE
Ariane Rocket 3.1 19:15:21 10° SSE 19:20:25 84° WSW 19:25:31 10° NNW
IRIDIUM 104 4.3 19:15:23 10° N 19:20:36 69° E 19:25:47 10° S
Resurs 01 Rocket 2.9 19:21:42 17° E 19:23:36 23° ENE 19:27:02 10° NNE
Cosmos 1602 Rocket 4.2 19:19:38 10° NNW 19:24:01 59° W 19:28:18 10° S
MOS 1 Rocket 4.3 19:19:43 10° NNE 19:24:32 32° E 19:29:22 10° SSE
MOS 1 4.2 19:19:12 10° SSE 19:24:50 79° ENE 19:30:30 10° NNW
ATLAS 2AS CENTAUR R/B 3.4 19:17:39 10° NNW 19:24:56 45° NE 19:29:59 18° ESE
USA 234 3.7 19:20:35 10° ENE 19:26:31 36° SE 19:32:25 10° SSW
Meteor 1-21 Rocket 4.2 19:20:57 10° N 19:26:31 87° W 19:32:03 10° S
Meteor 1-16 Rocket 4.1 19:21:47 10° S 19:27:05 66° E 19:32:34 10° NNE
H-2A R/B 4.2 19:21:54 10° W 19:29:18 17° SW 19:32:35 10° S
Cosmos 2154 Rocket 4.4 19:23:41 10° N 19:29:45 44° ENE 19:34:52 14° SE
IRIDIUM 114 4.3 19:24:31 10° N 19:29:46 84° E 19:34:59 10° S
Nadezhda 1 Rocket 4.2 19:23:54 10° SSE 19:30:01 50° E 19:36:07 10° NNE
Cosmos 1140 Rocket 4.3 19:25:47 10° SSE 19:30:07 27° E 19:34:26 10° NE
SL-4 R/B 1.4 19:27:12 10° SW 19:30:36 88° SE 19:33:43 12° ENE
Aureole 3 4.4 19:26:19 10° SSW 19:30:45 64° WNW 19:36:30 10° N
Cosmos 1726 Rocket 3.8 19:28:19 10° SSE 19:32:31 47° E 19:36:47 10° NNE
Cosmos 1340 Rocket 3.7 19:32:48 22° SE 19:34:18 29° E 19:37:49 10° NNE
ATLAS 5 CENTAUR R/B 2.2 19:32:13 10° S 19:35:47 29° ESE 19:39:39 10° NE
IRIDIUM 103 4.4 19:33:42 10° N 19:38:57 81° W 19:44:09 10° S
SL-24 R/B - RUBIN 2 4.5 19:34:04 10° S 19:39:11 44° ESE 19:44:58 10° NE
Cosmos 1825 Rocket 3.4 19:36:42 10° N 19:41:07 80° E 19:45:01 13° S
Cosmos 1328 3.9 19:37:11 10° N 19:41:08 54° E 19:43:15 25° SSE
Cosmos 1703 3.2 19:42:35 10° N 19:46:33 66° E 19:48:40 26° SSE
SL-8 R/B 3.8 19:42:00 10° WNW 19:46:46 68° SSW 19:49:09 28° SE
Cosmos 614 Rocket 3.9 19:41:46 10° S 19:46:56 66° ESE 19:52:07 10° NNE
SPOT 3 Rocket 3.5 19:45:41 16° SSE 19:49:55 76° ENE 19:55:07 10° N
Cosmos 1943 Rocket 3.5 19:45:52 10° NW 19:50:57 38° WSW 19:56:02 10° S
Abrixas rocket 3.9 19:48:42 10° NW 19:51:12 24° N 19:52:19 19° NE
Cosmos 2369 Rocket 3.0 19:47:30 10° NW 19:52:58 49° WSW 19:58:21 10° S
Cosmos 1758 Rocket 4.0 19:49:35 10° NNW 19:53:52 61° W 19:58:05 10° S
Cosmos 2074 Rocket 4.2 19:47:54 10° N 19:54:11 76° W 20:00:27 10° S
COSMOS 2455 3.8 19:48:55 10° NNW 19:54:19 33° NE 19:56:39 25° E
SL-24 R/B 3.7 19:51:02 10° NNE 19:55:11 88° WNW 19:58:55 10° SSW
Cosmos 1437 3.7 19:53:19 10° NNW 19:56:13 42° W 19:58:05 18° SSW
Cosmos 1953 4.3 19:53:08 10° SW 19:56:41 31° WNW 20:00:16 10° NNW
Cosmos 921 Rocket 3.9 19:53:16 10° N 19:56:58 29° ENE 19:57:12 29° ENE
CZ-2C R/B 3.8 19:52:21 10° NNE 19:57:06 85° WNW 20:01:43 10° SSW
Cosmos 407 Rocket 3.3 19:53:11 10° S 19:58:18 69° ESE 20:03:25 10° NNE
Cosmos 2228 3.2 19:54:34 10° SSW 19:58:51 74° W 20:03:11 10° N
Cosmos 1606 Rocket 4.0 19:57:05 10° SSW 20:01:28 65° W 20:05:55 10° N
Cosmos 1953 Rocket 3.5 19:57:00 10° N 20:01:29 89° E 20:04:01 26° S
Cosmos 1908 3.3 19:58:12 10° SSW 20:02:03 78° W 20:05:57 10° N
Cosmos 1818 4.3 20:01:08 10° SW 20:06:27 55° NW 20:11:50 10° NNE
SL-08 RB Rocket 4.4 20:06:02 12° S 20:10:03 51° W 20:14:32 10° NNW
Cosmos 1610 Rocket 4.4 20:04:02 10° N 20:10:15 87° W 20:14:59 18° S
MetOp-B 4.4 20:15:08 42° ESE 20:16:15 49° ENE 20:21:25 10° N
Meteor 1-11 4.2 20:10:34 10° N 20:16:22 87° W 20:19:34 27° S
APEX 4.2 20:12:48 10° NNW 20:19:21 81° ENE 20:21:10 45° SE
Cosmos 1461 3.4 20:15:01 10° NNW 20:19:27 50° NE 20:19:51 49° ENE
Cosmos 1954 Rocket 4.0 20:21:02 51° ESE 20:21:28 53° ESE 20:26:32 10° NNE
H-2A R/B 4.1 20:22:49 10° SSW 20:27:03 24° W 20:31:13 10° NW
Cosmos 1023 Rocket 4.4 20:24:57 10° SSW 20:30:09 83° WNW 20:35:20 10° NNE
SPOT 5 4.5 20:36:47 19° NE 20:36:47 19° NE 20:38:41 10° NNE
CZ-2C R/B 3.1 20:34:53 10° N 20:39:57 58° WNW 20:45:02 10° SSW
NOSS 3-4 (A) 3.9 20:36:39 10° NW 20:43:45 78° WSW 20:46:22 45° SSE
NOSS 3-4 (C) 3.9 20:36:45 10° NW 20:43:52 78° WSW 20:46:27 45° SSE
Cosmos 2341 Rocket 4.0 20:38:13 10° N 20:44:38 88° W 20:46:40 47° S
Terra 3.5 20:55:02 22° NE 20:55:02 22° NE 20:57:24 10° N
Resurs 01 Rocket 2.9 20:59:16 33° WSW 20:59:53 35° W 21:03:56 10° NNW
Cosmos 2218 Rocket 3.8 20:55:55 10° N 21:02:09 79° E 21:02:26 77° ESE
Cosmos 1980 Rocket 4.4 21:00:44 10° NNE 21:02:59 12° NE 21:03:10 12° NE
USA 245 4.3 21:08:37 72° WSW 21:08:52 73° W 21:15:03 10° NNW
USA 234 3.5 21:03:17 10° NE 21:09:46 69° NW 21:16:15 10° WSW
SL-4 R/B 4.3 21:07:43 10° WNW 21:09:22 19° NW 21:09:22 19° NW
Spot 2 Rocket 3.8 21:11:43 61° W 21:11:43 61° W 21:16:36 10° NNW
Cosmos 2181 Rocket 4.2 21:12:14 49° SW 21:13:53 68° W 21:20:05 10° N
ATLAS 2AS CENTAUR R/B 3.4 21:08:56 10° NW 21:15:55 45° WSW 21:17:26 40° SSW
ATLAS 5 CENTAUR R/B 3.3 21:16:33 10° WSW 21:20:19 31° NW 21:24:29 10° NNE
SL-8 Rocket 4.3 21:16:22 10° NNW 21:22:34 62° W 21:23:20 57° SW
Cosmos 864 Rocket 4.5 21:19:54 10° N 21:25:58 75° W 21:25:58 75° W
Cosmos 2366 rocket 4.2 21:28:09 10° NNW 21:34:06 63° W 21:34:06 63° W
COSMOS 2455 3.6 21:34:41 10° NW 21:39:49 46° W 21:39:49 46° W
ERS-1 Rocket 4.2 21:47:39 38° NW 21:47:39 38° NW 21:50:54 10° NNW
ATLAS CENTAUR R/B 4.4 21:47:35 10° N 21:47:36 10° N 21:47:36 10° N
Cosmos 1697 Rocket 4.2 22:14:07 10° NNW 22:17:11 33° NNW 22:17:11 33° NNW
CZ-4C R/B 3.6 22:16:05 10° NNW 22:22:18 45° NNE 22:22:18 45° NNE
Terra 4.3 22:33:55 18° NW 22:33:55 18° NW 22:35:21 10° NNW
SL-16 R/B 4.4 22:29:57 10° N 22:32:21 17° NNE 22:32:21 17° NNE
Cosmos 2322 Rocket 4.5 22:39:52 10° N 22:42:08 17° NNE 22:42:08 17° NNE
Cosmos 1980 Rocket 4.0 22:42:30 10° NNW 22:44:56 26° NNW 22:44:56 26° NNW
Cosmos 2082 Rocket 4.3 23:15:18 21° N 23:15:18 21° N 23:17:11 10° NNE
Cosmos 2344 4.4 23:08:29 10° NW 23:18:23 83° NE 23:18:38 83° ENE
